When you browse on this site, cookies collect data to enhance your experience and personalize the content and advertising you see.
Visit our Privacy Policy to learn more. By continuing to use the site, you agree to this use of cookies and data.
  • In Czech Republic
  • List of Countries
  • For 7 days
  • Water Temperature
  • Weather Map
  • Weather Widgets
  • user-avatar
    Login

    Hourly Weather Sololá

    Today, 17 September, Tuesday

    Time Temperature Precipitation Wind Pressure Humidity
    00:00 +14°C° 1.4 mm 1 mps 594 mmHg 95%
    01:00 +14°C° 0.3 mm 1 mps 594 mmHg 95%
    02:00 +14°C° 0.3 mm 1 mps 593 mmHg 95%
    03:00 +14°C° 0.3 mm 1 mps 593 mmHg 95%
    04:00 +14°C° 0.1 mm 1 mps 593 mmHg 94%
    05:00 +14°C° 0.1 mm 1 mps 593 mmHg 94%
    06:00 +14°C° 0.1 mm 1 mps 593 mmHg 93%
    07:00 +16°C° 0.2 mm 1 mps 595 mmHg 90%
    08:00 +18°C° 0.2 mm 1 mps 596 mmHg 86%
    09:00 +20°C° 0.2 mm 1 mps 597 mmHg 83%
    10:00 +20°C° 1 mm 1 mps 597 mmHg 83%
    11:00 +20°C° 1 mm 1 mps 596 mmHg 83%
    12:00 +20°C° 1 mm 2 mps 596 mmHg 83%
    13:00 +19°C° 1 mm 2 mps 596 mmHg 84%
    14:00 +20°C° 1 mm 1 mps 595 mmHg 85%
    15:00 +20°C° 1 mm 1 mps 594 mmHg 85%
    16:00 +19°C° 0.7 mm 1 mps 594 mmHg 89%
    17:00 +18°C° 0.7 mm 1 mps 594 mmHg 93%
    18:00 +15°C° 0.7 mm 0 mps 593 mmHg 96%
    19:00 +14°C° 0.1 mm 0 mps 594 mmHg 96%
    20:00 +14°C° 0.1 mm 0 mps 594 mmHg 96%
    21:00 +14°C° 0.1 mm 0 mps 595 mmHg 96%
    22:00 +13°C° 0 mm 0 mps 594 mmHg 95%
    23:00 +13°C° 0 mm 0 mps 594 mmHg 94%

    Tomorrow, 18 September, Wednesday

    Time Temperature Precipitation Wind Pressure Humidity
    00:00 +14°C° 0 mm 1 mps 594 mmHg 94%
    01:00 +13°C° 0 mm 1 mps 594 mmHg 93%
    02:00 +13°C° 0 mm 1 mps 593 mmHg 92%
    03:00 +13°C° 0 mm 1 mps 593 mmHg 91%
    04:00 +13°C° 0 mm 1 mps 593 mmHg 91%
    05:00 +13°C° 0 mm 1 mps 593 mmHg 90%
    06:00 +13°C° 0 mm 1 mps 593 mmHg 90%
    07:00 +15°C° 0 mm 1 mps 595 mmHg 82%
    08:00 +19°C° 0 mm 1 mps 596 mmHg 74%
    09:00 +22°C° 0 mm 1 mps 598 mmHg 67%
    10:00 +22°C° 0.3 mm 1 mps 597 mmHg 66%
    11:00 +23°C° 0.3 mm 1 mps 597 mmHg 65%
    12:00 +23°C° 0.3 mm 2 mps 597 mmHg 64%
    13:00 +23°C° 1.1 mm 2 mps 596 mmHg 69%
    14:00 +22°C° 1.1 mm 1 mps 596 mmHg 73%
    15:00 +22°C° 1.1 mm 1 mps 595 mmHg 77%
    16:00 +20°C° 1 mm 1 mps 594 mmHg 83%
    17:00 +17°C° 1 mm 0 mps 594 mmHg 88%
    18:00 +15°C° 1 mm 0 mps 593 mmHg 93%
    19:00 +15°C° 0.7 mm 0 mps 593 mmHg 93%
    20:00 +15°C° 0.7 mm 1 mps 594 mmHg 92%
    21:00 +15°C° 0.7 mm 1 mps 594 mmHg 92%
    22:00 +15°C° 0.3 mm 1 mps 594 mmHg 91%
    23:00 +15°C° 0.3 mm 1 mps 594 mmHg 90%

    Day after tomorrow, 19 September, Thursday

    Time Temperature Precipitation Wind Pressure Humidity
    00:00 +15°C° 0.3 mm 1 mps 594 mmHg 90%
    01:00 +15°C° 0.1 mm 1 mps 594 mmHg 89%
    02:00 +15°C° 0.1 mm 1 mps 593 mmHg 88%
    03:00 +14°C° 0.1 mm 1 mps 593 mmHg 88%
    04:00 +14°C° 0 mm 1 mps 593 mmHg 87%
    05:00 +14°C° 0 mm 2 mps 593 mmHg 87%
    06:00 +13°C° 0 mm 2 mps 592 mmHg 87%
    07:00 +16°C° 0 mm 1 mps 594 mmHg 79%
    08:00 +19°C° 0 mm 1 mps 595 mmHg 72%
    09:00 +22°C° 0 mm 1 mps 596 mmHg 65%
    10:00 +22°C° 0.6 mm 1 mps 596 mmHg 68%
    11:00 +22°C° 0.6 mm 1 mps 596 mmHg 70%
    12:00 +23°C° 0.6 mm 1 mps 596 mmHg 73%
    13:00 +21°C° 0.8 mm 2 mps 595 mmHg 72%
    14:00 +21°C° 0.8 mm 2 mps 594 mmHg 72%
    15:00 +21°C° 0.8 mm 2 mps 594 mmHg 72%
    16:00 +20°C° 0.5 mm 1 mps 593 mmHg 79%
    17:00 +19°C° 0.5 mm 1 mps 593 mmHg 86%
    18:00 +15°C° 0.5 mm 0 mps 592 mmHg 94%
    19:00 +15°C° 0.2 mm 1 mps 592 mmHg 94%
    20:00 +15°C° 0.2 mm 1 mps 592 mmHg 93%
    21:00 +14°C° 0.2 mm 1 mps 592 mmHg 93%
    22:00 +14°C° 0 mm 1 mps 592 mmHg 93%
    23:00 +13°C° 0 mm 1 mps 592 mmHg 93%

    20 September, Friday

    Time Temperature Precipitation Wind Pressure Humidity
    00:00 +13°C° 0 mm 1 mps 592 mmHg 94%
    01:00 +13°C° 0 mm 1 mps 592 mmHg 92%
    02:00 +13°C° 0 mm 2 mps 591 mmHg 90%
    03:00 +13°C° 0 mm 2 mps 591 mmHg 89%
    04:00 +12°C° 0 mm 2 mps 591 mmHg 86%
    05:00 +12°C° 0 mm 2 mps 591 mmHg 82%
    06:00 +12°C° 0 mm 2 mps 591 mmHg 79%
    07:00 +15°C° 0 mm 1 mps 593 mmHg 70%
    08:00 +19°C° 0 mm 1 mps 595 mmHg 61%
    09:00 +22°C° 0 mm 1 mps 596 mmHg 52%
    10:00 +22°C° 0 mm 1 mps 596 mmHg 52%
    11:00 +23°C° 0 mm 2 mps 596 mmHg 53%
    12:00 +24°C° 0 mm 2 mps 596 mmHg 53%
    13:00 +23°C° 0.7 mm 2 mps 595 mmHg 61%
    14:00 +21°C° 0.7 mm 2 mps 594 mmHg 69%
    15:00 +20°C° 0.7 mm 2 mps 594 mmHg 77%
    16:00 +19°C° 1 mm 1 mps 593 mmHg 84%
    17:00 +18°C° 1 mm 1 mps 593 mmHg 90%
    18:00 +15°C° 1 mm 0 mps 593 mmHg 96%
    19:00 +14°C° 0.8 mm 0 mps 593 mmHg 96%
    20:00 +15°C° 0.8 mm 1 mps 593 mmHg 95%
    21:00 +14°C° 0.8 mm 1 mps 594 mmHg 94%
    22:00 +14°C° 0.7 mm 1 mps 593 mmHg 94%
    23:00 +14°C° 0.7 mm 1 mps 593 mmHg 94%

    21 September, Saturday

    Time Temperature Precipitation Wind Pressure Humidity
    00:00 +13°C° 0.7 mm 1 mps 593 mmHg 94%
    01:00 +13°C° 0.3 mm 1 mps 593 mmHg 94%
    02:00 +13°C° 0.3 mm 1 mps 592 mmHg 94%
    03:00 +13°C° 0.3 mm 1 mps 592 mmHg 94%
    04:00 +13°C° 0.1 mm 1 mps 592 mmHg 94%
    05:00 +13°C° 0.1 mm 1 mps 592 mmHg 94%
    06:00 +12°C° 0.1 mm 1 mps 593 mmHg 93%
    07:00 +15°C° 0 mm 1 mps 594 mmHg 85%
    08:00 +18°C° 0 mm 1 mps 595 mmHg 77%
    09:00 +21°C° 0 mm 1 mps 597 mmHg 69%
    10:00 +22°C° 0.2 mm 1 mps 597 mmHg 66%
    11:00 +23°C° 0.2 mm 1 mps 597 mmHg 63%
    12:00 +23°C° 0.2 mm 2 mps 597 mmHg 61%
    13:00 +21°C° 1.1 mm 2 mps 596 mmHg 68%
    14:00 +20°C° 1.1 mm 2 mps 595 mmHg 75%
    15:00 +20°C° 1.1 mm 1 mps 594 mmHg 82%
    16:00 +19°C° 1.2 mm 1 mps 593 mmHg 87%
    17:00 +18°C° 1.2 mm 1 mps 593 mmHg 92%
    18:00 +15°C° 1.2 mm 0 mps 593 mmHg 97%
    19:00 +14°C° 0.5 mm 0 mps 593 mmHg 96%
    20:00 +14°C° 0.5 mm 0 mps 593 mmHg 96%
    21:00 +13°C° 0.5 mm 0 mps 594 mmHg 96%
    22:00 +14°C° 0.1 mm 1 mps 594 mmHg 96%
    23:00 +14°C° 0.1 mm 1 mps 594 mmHg 95%

    22 September, Sunday

    Time Temperature Precipitation Wind Pressure Humidity
    00:00 +14°C° 0.1 mm 1 mps 593 mmHg 94%
    01:00 +13°C° 0.1 mm 1 mps 593 mmHg 94%
    02:00 +13°C° 0.1 mm 1 mps 593 mmHg 95%
    03:00 +13°C° 0.1 mm 1 mps 592 mmHg 95%
    04:00 +13°C° 0 mm 1 mps 592 mmHg 94%
    05:00 +13°C° 0 mm 1 mps 592 mmHg 93%
    06:00 +13°C° 0 mm 1 mps 593 mmHg 92%
    07:00 +15°C° 0 mm 1 mps 594 mmHg 83%
    08:00 +19°C° 0 mm 1 mps 595 mmHg 75%
    09:00 +21°C° 0 mm 1 mps 597 mmHg 66%
    10:00 +21°C° 0.4 mm 1 mps 596 mmHg 70%
    11:00 +21°C° 0.5 mm 1 mps 596 mmHg 73%
    12:00 +20°C° 0.5 mm 2 mps 596 mmHg 77%
    13:00 +19°C° 2.2 mm 2 mps 595 mmHg 81%
    14:00 +19°C° 2.2 mm 1 mps 594 mmHg 86%
    15:00 +18°C° 2.2 mm 1 mps 593 mmHg 91%
    16:00 +18°C° 4.4 mm 1 mps 593 mmHg 92%
    17:00 +16°C° 4.4 mm 1 mps 593 mmHg 94%
    18:00 +15°C° 4.4 mm 1 mps 593 mmHg 96%
    19:00 +15°C° 1.4 mm 1 mps 593 mmHg 95%
    20:00 +15°C° 1.4 mm 1 mps 593 mmHg 95%
    21:00 +14°C° 1.4 mm 1 mps 594 mmHg 94%
    22:00 +14°C° 0.6 mm 1 mps 594 mmHg 94%
    23:00 +14°C° 0.6 mm 1 mps 593 mmHg 93%
    Show more